Погода в Мирбазаре

Узбекистан     39°57′41″N   65°56′10″E
темп.,
°C
ветер,
м/с
пор.,
м/с
влажн.,
%
обл.,
%
осадки,
мм/ч
давл.,
гПа
погр.,
м
1 марта, пн
пн123:00+7юв3438100 0.0 102044
02:00+6вюв344787 0.0 102054
05:00+5вюв444644 0.0 102050
08:00+5вюв44430 0.0 102069
11:00+13юв45260 0.0 1019497
14:00+17юз810190 0.0 10171403
17:00+18юз79170 0.0 10171781
20:00+12з34320 0.0 102034
2 марта, вт
вт223:00+10з233233 0.0 102122
02:00+8зюз1236100 0.0 102222
05:00+7сз1142100 0.0 102122
08:00+9юв1239100 0.0 102322
11:00+14в3426100 0.0 1022486
14:00+17з1121100 0.0 10211171
17:00+17з4520100 0.0 10202276
20:00+11зсз343831 0.0 102348
3 марта, ср
ср323:00+8с124716 0.0 102423
02:00+8ссз114987 0.0 102422
05:00+7в225190 0.0 102423
08:00+7вюв245395 0.0 1024112
11:00+11вюв224196 0.0 1023535
14:00+15з452759 0.0 10211742
17:00+15з552943 0.0 10201726
20:00+11з23391 0.0 102032
4 марта, чт
чт423:00+8сз11470 0.0 102022
02:00+7в12490 0.0 101822
05:00+7вюв34770 0.0 101849
08:00+8вюв357245 0.0 1018119
11:00+14ююв344773 0.1 1017563
14:00+14юз2654100 1.9 1017838
17:00+17зюз693952 2.0 10171856
20:00+13з612502 0.3 1021438
5 марта, пт
пт523:00+9сз235515 0.3 102433
02:00+7зсз777782 0.8 1026747
05:00+5зсз238192 2.7 1029434
08:00+5с118050 0.0 1030186
11:00+8в776227 0.1 1028923
14:00+11в44498 0.0 10241042
17:00+10в785737 0.0 1022725
20:00+7в10146285 0.0 1020520